Date String (YYYY-MM-DD hh:mm:ss) UTC,Instrument flags,absolute air pressure of the measurement (hPa),sample flow rate (lpm),inlet stack bypass flow (lpm),air temperature of the measurement (°C),ambient temperature measured by the external sensor (°C),aerosol sample conditioner tube jacket temperature (°C),OPC LED temperature (°C),internal box temperature (°C),relative humidity of the measurement (%),span deviation,mass concentration of particles derived from Lorenz-Mie calculation of OPC scattering (μg/m³),mass concentration of particles derived from Lorenz-Mie calculation of OPC scattering (μg/m³),mass concentration of particles derived from Lorenz-Mie calculation of OPC scattering (μg/m³)
DateTimeUTC,F1_M11,P_M11,Q1_M11,Q2_M11,T1_M11,T2_M11,T3_M11,T4_M11,T5_M11,U1_M11,ZSPAN_M11,X2_M11,X0_M11,X1_M11
2023-09-01 12:00:00,SystemResetWarning,0829.7,5.00,000.00,028.4,027.1,000.0,036.7,030.0,17.5,0000.0,0003.06,0008.49,0002.29
2023-09-01 12:01:00,SystemResetWarning,0829.7,5.00,000.00,028.4,027.2,000.0,036.7,030.0,17.7,0000.0,0003.09,0008.79,0002.33
2023-09-01 12:02:00,SystemResetWarning,0829.7,5.00,000.00,028.4,027.3,000.0,036.8,030.0,17.8,0000.0,0003.13,0009.25,0002.38
2023-09-01 12:03:00,SystemResetWarning,0829.7,5.00,000.00,028.5,027.3,000.0,036.8,030.1,17.4,0000.0,0003.15,0008.54,0002.42
2023-09-01 12:04:00,SystemResetWarning,0829.7,4.99,000.00,028.5,027.4,000.0,036.8,030.1,17.5,0000.0,0003.13,0008.09,0002.45
2023-09-01 12:05:00,SystemResetWarning,0829.7,4.99,000.00,028.5,027.4,000.0,036.8,030.1,17.4,0000.0,0003.14,0008.06,0002.48
2023-09-01 12:06:00,SystemResetWarning,0829.7,5.00,000.00,028.5,027.4,000.0,036.8,030.1,17.4,0000.0,0003.18,0008.12,0002.52
2023-09-01 12:07:00,SystemResetWarning,0829.6,5.00,000.00,028.5,026.6,000.0,036.8,029.9,17.3,0000.0,0003.18,0007.98,0002.57
2023-09-01 12:08:00,SystemResetWarning,0829.6,5.00,000.00,028.4,025.0,000.0,036.7,029.5,17.1,0000.0,0003.20,0007.81,0002.63
2023-09-01 12:09:00,SystemResetWarning,0829.6,5.01,000.00,028.3,024.6,000.0,036.7,029.4,17.1,0000.0,0003.23,0007.60,0002.69
2023-09-01 12:10:00,SystemResetWarning,0829.7,5.02,000.00,028.2,024.8,000.0,036.6,029.3,17.7,0000.0,0003.24,0007.13,0002.70
2023-09-01 12:11:00,SystemResetWarning,0829.7,4.99,000.00,028.1,025.1,000.0,036.6,029.4,17.2,0000.0,0003.22,0006.99,0002.68
2023-09-01 12:12:00,SystemResetWarning,0829.7,4.99,000.00,028.1,025.4,000.0,036.7,029.5,17.1,0000.0,0003.21,0006.94,0002.68
2023-09-01 12:13:00,SystemResetWarning,0829.7,5.01,000.00,028.1,025.8,000.0,036.6,029.5,17.0,0000.0,0003.17,0006.95,0002.66
2023-09-01 12:14:00,SystemResetWarning,0829.7,5.01,000.00,028.1,026.0,000.0,036.6,029.6,16.8,0000.0,0003.18,0006.91,0002.64
2023-09-01 12:15:00,SystemResetWarning,0829.7,5.00,000.00,028.1,026.3,000.0,036.6,029.6,16.6,0000.0,0003.18,0006.88,0002.61
2023-09-01 12:16:00,SystemResetWarning,0829.7,5.00,000.00,028.2,026.5,000.0,036.6,029.7,16.5,0000.0,0003.18,0006.90,0002.59
2023-09-01 12:17:00,SystemResetWarning,0829.7,4.99,000.00,028.2,026.6,000.0,036.7,029.7,17.0,0000.0,0003.15,0006.81,0002.54
2023-09-01 12:18:00,SystemResetWarning,0829.7,5.00,000.00,028.2,026.8,000.0,036.7,029.8,17.5,0000.0,0003.13,0007.21,0002.49
2023-09-01 12:19:00,SystemResetWarning,0829.7,5.01,000.00,028.2,026.9,000.0,036.7,029.8,17.3,0000.0,0003.12,0007.00,0002.44
2023-09-01 12:20:00,SystemResetWarning,0829.7,5.00,000.00,028.3,027.0,000.0,036.7,029.9,16.4,0000.0,0003.07,0006.67,0002.36
2023-09-01 12:21:00,SystemResetWarning,0829.8,4.99,000.00,028.3,027.1,000.0,036.7,029.9,16.4,0000.0,0003.03,0006.62,0002.33
2023-09-01 12:22:00,SystemResetWarning,0829.8,4.99,000.00,028.3,027.1,000.0,036.7,029.9,16.0,0000.0,0002.98,0006.55,0002.30
2023-09-01 12:23:00,SystemResetWarning,0829.9,4.99,000.00,028.4,027.2,000.0,036.7,030.0,16.2,0000.0,0002.95,0006.03,0002.26
2023-09-01 12:24:00,SystemResetWarning,0830.0,5.01,000.00,028.4,027.3,000.0,036.7,030.0,17.2,0000.0,0002.93,0005.15,0002.24
2023-09-01 12:25:00,SystemResetWarning,0830.0,5.00,000.00,028.4,027.4,000.0,036.8,030.1,17.6,0000.0,0002.85,0004.93,0002.22
2023-09-01 12:26:00,SystemResetWarning,0830.0,4.99,000.00,028.5,027.4,000.0,036.8,030.1,17.6,0000.0,0002.79,0004.83,0002.20
2023-09-01 12:27:00,SystemResetWarning,0830.0,4.99,000.00,028.5,027.5,000.0,036.8,030.2,17.2,0000.0,0002.79,0004.82,0002.19
2023-09-01 12:28:00,SystemResetWarning,0830.0,5.00,000.00,028.5,027.2,000.0,036.8,030.1,17.0,0000.0,0002.79,0004.87,0002.17
2023-09-01 12:29:00,SystemResetWarning,0830.0,5.00,000.00,028.5,025.4,000.0,036.7,029.6,17.0,0000.0,0002.75,0004.41,0002.16
2023-09-01 12:30:00,SystemResetWarning,0830.1,5.01,000.00,028.3,024.6,000.0,036.6,029.4,16.9,0000.0,0002.75,0004.61,0002.16
2023-09-01 12:31:00,SystemResetWarning,0830.0,5.01,000.00,028.2,024.7,000.0,036.6,029.3,16.7,0000.0,0002.80,0005.06,0002.17
2023-09-01 12:32:00,SystemResetWarning,0830.0,4.99,000.00,028.1,025.0,000.0,036.6,029.3,16.6,0000.0,0002.79,0005.32,0002.17
2023-09-01 12:33:00,SystemResetWarning,0830.0,4.99,000.00,028.1,025.4,000.0,036.6,029.4,16.4,0000.0,0002.78,0005.30,0002.16
2023-09-01 12:34:00,SystemResetWarning,0830.0,5.00,000.00,028.1,025.7,000.0,036.6,029.5,16.4,0000.0,0002.75,0005.26,0002.17
2023-09-01 12:35:00,SystemResetWarning,0830.0,5.00,000.00,028.1,026.0,000.0,036.6,029.6,16.3,0000.0,0002.76,0007.21,0002.18
2023-09-01 12:36:00,SystemResetWarning,0830.1,4.99,000.00,028.2,026.3,000.0,036.6,029.7,16.2,0000.0,0002.79,0007.28,0002.19
2023-09-01 12:37:00,SystemResetWarning,0830.0,5.00,000.00,028.2,026.5,000.0,036.6,029.8,16.1,0000.0,0002.90,0007.47,0002.22
2023-09-01 12:38:00,SystemResetWarning,0830.0,5.00,000.00,028.2,026.7,000.0,036.6,029.8,16.1,0000.0,0002.94,0007.60,0002.23
2023-09-01 12:39:00,SystemResetWarning,0830.0,5.00,000.00,028.2,026.9,000.0,036.7,029.8,16.0,0000.0,0002.94,0007.64,0002.26
2023-09-01 12:40:00,SystemResetWarning,0830.0,5.00,000.00,028.3,027.0,000.0,036.7,029.9,16.0,0000.0,0003.03,0007.80,0002.31
2023-09-01 12:41:00,SystemResetWarning,0830.0,5.00,000.00,028.3,027.1,000.0,036.7,029.9,16.0,0000.0,0003.04,0007.65,0002.34
2023-09-01 12:42:00,SystemResetWarning,0830.0,5.00,000.00,028.3,027.2,000.0,036.7,029.9,15.9,0000.0,0003.00,0007.48,0002.37
2023-09-01 12:43:00,SystemResetWarning,0830.1,5.00,000.00,028.4,027.2,000.0,036.7,030.0,15.9,0000.0,0003.04,0007.16,0002.40
2023-09-01 12:44:00,SystemResetWarning,0830.1,5.00,000.00,028.4,027.3,000.0,036.7,030.0,15.8,0000.0,0003.08,0007.23,0002.41
2023-09-01 12:45:00,SystemResetWarning,0830.1,5.00,000.00,028.4,027.4,000.0,036.7,030.1,16.0,0000.0,0003.12,0007.30,0002.43
2023-09-01 12:46:00,SystemResetWarning,0830.1,5.00,000.00,028.5,027.4,000.0,036.8,030.1,16.1,0000.0,0003.15,0006.59,0002.44
2023-09-01 12:47:00,SystemResetWarning,0830.1,5.00,000.00,028.5,027.5,000.0,036.8,030.2,16.3,0000.0,0003.14,0006.28,0002.44
2023-09-01 12:48:00,SystemResetWarning,0830.1,5.00,000.00,028.5,027.5,000.0,036.8,030.2,16.2,0000.0,0003.11,0006.09,0002.43
2023-09-01 12:49:00,SystemResetWarning,0830.1,5.00,000.00,028.6,027.6,000.0,036.8,030.2,16.5,0000.0,0003.08,0005.85,0002.41
2023-09-01 12:50:00,SystemResetWarning,0830.1,4.99,000.00,028.6,027.1,000.0,036.8,030.1,16.6,0000.0,0003.06,0005.75,0002.40
2023-09-01 12:51:00,SystemResetWarning,0830.1,5.00,000.00,028.5,025.5,000.0,036.8,029.7,17.0,0000.0,0003.06,0005.97,0002.38
2023-09-01 12:52:00,SystemResetWarning,0830.1,5.01,000.00,028.4,025.0,000.0,036.7,029.6,17.1,0000.0,0003.03,0005.70,0002.33
2023-09-01 12:53:00,SystemResetWarning,0830.2,5.00,000.00,028.3,025.1,000.0,036.7,029.4,17.4,0000.0,0003.02,0005.73,0002.29
2023-09-01 12:54:00,SystemResetWarning,0830.2,5.00,000.00,028.2,025.4,000.0,036.7,029.5,17.6,0000.0,0002.99,0005.67,0002.27
2023-09-01 12:55:00,SystemResetWarning,0830.2,5.00,000.00,028.2,025.7,000.0,036.7,029.6,17.3,0000.0,0002.93,0005.51,0002.24
2023-09-01 12:56:00,SystemResetWarning,0830.2,5.00,000.00,028.2,026.0,000.0,036.7,029.7,16.9,0000.0,0002.91,0005.45,0002.23
2023-09-01 12:57:00,SystemResetWarning,0830.3,4.99,000.00,028.3,026.3,000.0,036.7,029.8,16.8,0000.0,0002.86,0005.29,0002.20
2023-09-01 12:58:00,SystemResetWarning,0830.3,5.00,000.00,028.3,026.6,000.0,036.7,029.8,16.9,0000.0,0002.90,0005.23,0002.19
2023-09-01 12:59:00,SystemResetWarning,0830.3,5.00,000.00,028.3,026.8,000.0,036.7,029.9,17.5,0000.0,0002.91,0005.34,0002.17
